Breckenridge, TX

4:41 AM CDT on August 22, 2017 (GMT -0500)
Stephens County

Weather History for KBKD - June, 2013

Change the Weather History Date:

Sunday, June 16, 2013

  Actual Average (KMWL) Record (KMWL)
Temperature  
Mean Temperature 84 °F -  
Max Temperature 98 °F 88 °F 102 °F (2011)
Min Temperature 72 °F 68 °F 63 °F (2002)
Cooling Degree Days 20    
Growing Degree Days 34 (Base 50)    
Moisture  
Dew Point 65 °F    
Average Humidity 55    
Maximum Humidity 82    
Minimum Humidity 30    
Precipitation  
Precipitation 0.00 in - - ()
Sea Level Pressure  
Sea Level Pressure 29.96 in    
Wind  
Wind Speed 7 mph (SSE)    
Max Wind Speed 16 mph    
Max Gust Speed 22 mph    
Visibility 10 miles    
Events      
Averages and records for this station are not official NWS values.
T = Trace of Precipitation, MM = Missing Value Source: NWS Daily Summary

Daily Weather History Graph

Daily Weather History Graph

Search for Another Location

Airport or City:

Trip Planner

Search our weather history database for the weather conditions in past years. The results will help you decide how hot, cold, wet, or windy it might be!

Date:

Astronomy

Jun. 16, 2013 Rise Set
Actual Time 6:27 AM CDT 8:45 PM CDT
Civil Twilight 5:58 AM CDT 9:14 PM CDT
Nautical Twilight 5:23 AM CDT 9:49 PM CDT
Astronomical Twilight 4:45 AM CDT 10:27 PM CDT
Moon 1:41 PM CDT (6/16) 1:12 AM CDT (6/16)
Length of Visible Light 15h 15m
Length of Day
14h 18m
Waxing Crescent, 50% of the Moon is Illuminated
Jun 16
Waxing Crescent
Jun 16
First Quarter
Jun 23
Full
Jun 29
Last Quarter
Jul 8
New

Hourly Weather History & Observations

Time (CDT) Temp. Heat Index Dew Point Humidity Pressure Visibility Wind Dir Wind Speed Gust Speed Precip Events Conditions
12:15 AM 77.0 °F - 68.2 °F 74% 29.96 in 10.0 mi SE 6.9 mph - N/A   Clear
12:35 AM 76.6 °F - 68.2 °F 75% 29.96 in 10.0 mi SE 6.9 mph - N/A   Clear
12:55 AM 76.3 °F - 68.2 °F 76% 29.96 in 10.0 mi SE 9.2 mph - N/A   Clear
1:15 AM 76.3 °F - 68.0 °F 75% 29.96 in 10.0 mi SSE 8.1 mph - N/A   Clear
1:35 AM 76.1 °F - 68.0 °F 76% 29.96 in 10.0 mi SSE 5.8 mph - N/A   Clear
1:55 AM 76.1 °F - 68.0 °F 76% 29.95 in 10.0 mi SSE 6.9 mph - N/A   Clear
2:15 AM 75.7 °F - 67.6 °F 76% 29.95 in 10.0 mi SSE 5.8 mph - N/A   Clear
2:35 AM 75.4 °F - 67.5 °F 76% 29.95 in 10.0 mi SSE 4.6 mph - N/A   Clear
2:55 AM 75.2 °F - 67.3 °F 76% 29.94 in 10.0 mi SSE 5.8 mph - N/A   Clear
3:15 AM 74.8 °F - 67.3 °F 77% 29.93 in 10.0 mi SSE 6.9 mph - N/A   Clear
3:35 AM 74.7 °F - 67.1 °F 77% 29.94 in 10.0 mi Calm Calm - N/A   Clear
3:55 AM 74.7 °F - 66.7 °F 76% 29.94 in 10.0 mi Calm Calm - N/A   Clear
4:15 AM 74.3 °F - 66.6 °F 77% 29.94 in 10.0 mi South 4.6 mph - N/A   Clear
4:35 AM 73.8 °F - 66.4 °F 78% 29.94 in 10.0 mi South 6.9 mph - N/A   Clear
4:55 AM 73.6 °F - 66.2 °F 78% 29.95 in 10.0 mi South 6.9 mph - N/A   Clear
5:15 AM 73.4 °F - 66.4 °F 79% 29.96 in 10.0 mi South 3.5 mph - N/A   Scattered Clouds
5:35 AM 72.7 °F - 66.6 °F 81% 29.97 in 10.0 mi SE 3.5 mph - N/A   Scattered Clouds
5:55 AM 72.5 °F - 66.7 °F 82% 29.98 in 10.0 mi ESE 5.8 mph - N/A   Mostly Cloudy
6:15 AM 72.7 °F - 66.6 °F 81% 29.98 in 10.0 mi SE 5.8 mph - N/A   Mostly Cloudy
6:35 AM 72.5 °F - 66.4 °F 81% 30.00 in 10.0 mi SE 4.6 mph - N/A   Scattered Clouds
6:55 AM 72.5 °F - 66.4 °F 81% 30.01 in 10.0 mi SE 4.6 mph - N/A   Clear
7:15 AM 72.7 °F - 66.4 °F 81% 30.01 in 10.0 mi SSE 5.8 mph - N/A   Scattered Clouds
7:35 AM 73.9 °F - 67.1 °F 79% 30.01 in 10.0 mi SSE 4.6 mph - N/A   Scattered Clouds
7:55 AM 75.7 °F - 67.3 °F 75% 30.02 in 10.0 mi SSE 4.6 mph - N/A   Mostly Cloudy
8:15 AM 77.0 °F - 67.3 °F 72% 30.03 in 10.0 mi South 3.5 mph - N/A   Overcast
8:35 AM 79.5 °F - 68.0 °F 68% 30.03 in 10.0 mi South 4.6 mph - N/A   Overcast
8:55 AM 79.7 °F - 68.0 °F 67% 30.04 in 10.0 mi Calm Calm - N/A   Overcast
9:15 AM 79.7 °F - 68.0 °F 67% 30.05 in 10.0 mi Calm Calm - N/A   Overcast
9:35 AM 80.2 °F 82.7 °F 67.6 °F 65% 30.05 in 10.0 mi SSW 4.6 mph - N/A   Overcast
9:55 AM 81.5 °F 84.2 °F 68.0 °F 63% 30.05 in 10.0 mi SSE 4.6 mph - N/A   Overcast
10:15 AM 82.0 °F 84.9 °F 67.8 °F 62% 30.04 in 10.0 mi SSW 8.1 mph - N/A   Overcast
10:35 AM 84.6 °F 87.6 °F 68.0 °F 57% 30.04 in 10.0 mi SSW 8.1 mph - N/A   Overcast
10:55 AM 84.0 °F 87.3 °F 68.2 °F 59% 30.03 in 10.0 mi SSW 9.2 mph - N/A   Mostly Cloudy
11:15 AM 86.0 °F 89.4 °F 68.2 °F 55% 30.03 in 10.0 mi SSW 9.2 mph - N/A   Scattered Clouds
11:35 AM 87.1 °F 90.9 °F 68.4 °F 54% 30.02 in 10.0 mi South 3.5 mph - N/A   Clear
11:55 AM 89.1 °F 92.1 °F 67.3 °F 48% 30.02 in 10.0 mi South 8.1 mph - N/A   Clear
12:15 PM 90.1 °F 93.1 °F 66.9 °F 46% 30.01 in 10.0 mi South 9.2 mph 16.1 mph N/A   Scattered Clouds
12:35 PM 91.6 °F 94.3 °F 66.0 °F 43% 30.00 in 10.0 mi South 10.4 mph 17.3 mph N/A   Scattered Clouds
12:55 PM 91.0 °F 93.8 °F 66.4 °F 44% 30.00 in 10.0 mi SSW 9.2 mph - N/A   Scattered Clouds
1:15 PM 91.4 °F 93.2 °F 64.9 °F 41% 29.99 in 10.0 mi SSW 11.5 mph 17.3 mph N/A   Overcast
1:35 PM 92.7 °F 94.9 °F 65.3 °F 40% 29.98 in 10.0 mi South 13.8 mph - N/A   Mostly Cloudy
1:55 PM 93.9 °F 96.5 °F 65.5 °F 39% 29.97 in 10.0 mi SSW 11.5 mph 18.4 mph N/A   Mostly Cloudy
2:15 PM 92.5 °F 95.0 °F 65.3 °F 41% 29.96 in 10.0 mi SSW 12.7 mph 18.4 mph N/A   Mostly Cloudy
2:35 PM 95.7 °F 98.2 °F 64.8 °F 36% 29.95 in 10.0 mi SSW 8.1 mph - N/A   Mostly Cloudy
2:55 PM 94.5 °F 96.1 °F 64.0 °F 36% 29.95 in 10.0 mi SSE 12.7 mph 18.4 mph N/A   Mostly Cloudy
3:15 PM 95.9 °F 98.0 °F 63.9 °F 35% 29.94 in 10.0 mi South 15.0 mph 18.4 mph N/A   Mostly Cloudy
3:35 PM 97.2 °F 98.1 °F 62.2 °F 31% 29.93 in 10.0 mi South 8.1 mph 16.1 mph N/A   Scattered Clouds
3:55 PM 96.3 °F 97.2 °F 62.2 °F 32% 29.93 in 10.0 mi SSW 13.8 mph 18.4 mph N/A   Scattered Clouds
4:15 PM 97.2 °F 98.6 °F 62.4 °F 32% 29.92 in 10.0 mi SSW 15.0 mph - N/A   Scattered Clouds
4:35 PM 97.3 °F 98.4 °F 62.1 °F 31% 29.91 in 10.0 mi South 12.7 mph 19.6 mph N/A   Scattered Clouds
4:55 PM 96.6 °F 97.3 °F 61.2 °F 31% 29.91 in 10.0 mi SSE 10.4 mph 18.4 mph N/A   Mostly Cloudy
5:15 PM 97.5 °F 98.2 °F 61.3 °F 30% 29.90 in 10.0 mi South 13.8 mph 20.7 mph N/A   Scattered Clouds
5:35 PM 97.5 °F 98.2 °F 61.3 °F 30% 29.90 in 10.0 mi South 15.0 mph 19.6 mph N/A   Scattered Clouds
5:55 PM 96.8 °F 97.5 °F 61.2 °F 31% 29.88 in 10.0 mi South 11.5 mph 19.6 mph N/A   Scattered Clouds
6:15 PM 97.0 °F 97.4 °F 60.8 °F 30% 29.88 in 10.0 mi SSE 10.4 mph 21.9 mph N/A   Clear
6:35 PM 96.8 °F 97.1 °F 60.4 °F 30% 29.88 in 10.0 mi SSE 11.5 mph 17.3 mph N/A   Scattered Clouds
6:55 PM 96.6 °F 96.8 °F 60.8 °F 30% 29.88 in 10.0 mi South 12.7 mph - N/A   Scattered Clouds
7:15 PM 95.5 °F 96.0 °F 61.2 °F 32% 29.87 in 10.0 mi South 8.1 mph - N/A   Scattered Clouds
7:35 PM 95.2 °F 95.5 °F 60.8 °F 32% 29.87 in 10.0 mi SSE 16.1 mph - N/A   Clear
7:55 PM 94.3 °F 94.5 °F 60.8 °F 33% 29.87 in 10.0 mi SSE 11.5 mph - N/A   Clear
8:15 PM 93.6 °F 93.4 °F 60.6 °F 33% 29.87 in 10.0 mi SSE 10.4 mph - N/A   Clear
8:35 PM 92.5 °F 92.2 °F 60.4 °F 34% 29.87 in 10.0 mi SSE 8.1 mph - N/A   Clear
8:55 PM 91.0 °F 90.9 °F 60.8 °F 36% 29.88 in 10.0 mi SSE 5.8 mph - N/A   Clear
9:15 PM 89.4 °F 89.5 °F 61.7 °F 39% 29.90 in 10.0 mi SE 6.9 mph - N/A   Clear
9:35 PM 87.8 °F 88.2 °F 62.1 °F 42% 29.91 in 10.0 mi SE 6.9 mph - N/A   Clear
9:55 PM 86.9 °F 87.5 °F 62.6 °F 44% 29.91 in 10.0 mi SE 6.9 mph - N/A   Clear
10:15 PM 86.9 °F 87.8 °F 63.0 °F 45% 29.92 in 10.0 mi SE 8.1 mph - N/A   Mostly Cloudy
10:35 PM 86.5 °F 87.6 °F 63.5 °F 46% 29.93 in 10.0 mi SSE 9.2 mph - N/A   Mostly Cloudy
10:55 PM 86.2 °F 87.3 °F 63.5 °F 47% 29.92 in 10.0 mi SSE 10.4 mph - N/A   Clear
11:15 PM 86.5 °F 87.6 °F 63.3 °F 46% 29.92 in 10.0 mi SSE 8.1 mph - N/A   Clear
11:35 PM 86.9 °F 87.8 °F 63.0 °F 45% 29.93 in 10.0 mi SSE 10.4 mph - N/A   Clear
11:55 PM 86.5 °F 87.3 °F 63.0 °F 45% 29.93 in 10.0 mi SSE 11.5 mph - N/A   Clear